User: anonymous   Login
Location: Stigler
(35.2540°N, 95.1230°W)
Time: 18:33:51
(UTC-05:00)
Language:

Cosmos 1805 - Orbit

View from above orbital plane
View from above orbital plane
View from above satellite
View from above satellite

Ground track
Ground track

The orbit data is extracted from the following two-line orbital elements,

1 17191U 86097A   16120.40226230  .00000958  00000-0  55421-4 0  9991
2 17191  82.4762  76.8024 0006113  64.9663 295.2201 15.11112295601143
Epoch (UTC): 29 April 2016 09:39:15
Eccentricity: 0.0006113
inclination: 82.4762°
perigee height: 528 km
apogee height: 537 km
right ascension of ascending node: 76.8024°
argument of perigee: 64.9663°
revolutions per day: 15.11112295
mean anomaly at epoch: 295.2201°
orbit number at epoch: 60114

The dashed part of the orbit path shows where the satellite is in the earth's shadow,  

DLR